Muscle Shoals, AL

7:22 AM CDT on August 24, 2016 (GMT -0500)
Northwest Alabama Regional

Weather History for KMSL - March, 2013

Change the Weather History Date:

Saturday, March 23, 2013

  Actual Average Record
Temperature  
Mean Temperature 50 °F 55 °F  
Max Temperature 55 °F 67 °F 88 °F (1939)
Min Temperature 45 °F 44 °F 19 °F (1968)
Degree Days  
Heating Degree Days 15 10  
Month to date heating degree days 384 303  
Since 1 July heating degree days 2600 2838  
Cooling Degree Days 0 0  
Month to date cooling degree days 1 0  
Year to date cooling degree days 8 1  
Moisture  
Dew Point 46 °F    
Average Humidity 82    
Maximum Humidity 86    
Minimum Humidity 77    
Precipitation  
Precipitation 0.96 in 0.16 in 4.84 in (1929)
Month to date precipitation 3.60 3.52  
Year to date precipitation 15.10 12.79  
Snow  
Snow 0.00 in - - ()
Month to date snowfall T  
Since 1 July snowfall T  
Snow Depth 0.00 in    
Sea Level Pressure  
Sea Level Pressure 29.86 in    
Wind  
Wind Speed 7 mph (East)    
Max Wind Speed 18 mph    
Max Gust Speed 24 mph    
Visibility 5 miles    
Events Rain , Thunderstorm    
T = Trace of Precipitation, MM = Missing Value Source: NWS Daily Summary

Daily Weather History Graph

Daily Weather History Graph

Search for Another Location

Airport or City:

Trip Planner

Search our weather history database for the weather conditions in past years. The results will help you decide how hot, cold, wet, or windy it might be!

Date:

Astronomy

Mar. 23, 2013 Rise Set
Actual Time 6:49 AM CDT 7:04 PM CDT
Civil Twilight 6:24 AM CDT 7:29 PM CDT
Nautical Twilight 5:54 AM CDT 7:59 PM CDT
Astronomical Twilight 5:25 AM CDT 8:29 PM CDT
Moon 3:38 PM CDT (3/23) 4:17 AM CDT (3/23)
Length of Visible Light 13h 05m
Length of Day
12h 15m
Waxing Gibbous, 85% of the Moon is Illuminated
Mar 23
Waxing Gibbous
Mar 27
Full
Apr 2
Last Quarter
Apr 10
New
Apr 18
First Quarter

Hourly Weather History & Observations

Time (CDT) Temp. Windchill Dew Point Humidity Pressure Visibility Wind Dir Wind Speed Gust Speed Precip Events Conditions
12:10 AM 46.4 °F 42.9 °F 39.2 °F 76% 29.95 in 7.0 mi East 6.9 mph - N/A   Overcast
12:35 AM 46.4 °F 44.3 °F 39.2 °F 76% 29.96 in 6.0 mi East 4.6 mph - 0.01 in Rain , Thunderstorm Light Thunderstorms and Rain
12:53 AM 45.0 °F 41.2 °F 39.9 °F 82% 29.95 in 3.0 mi ESE 6.9 mph - 0.06 in Rain , Thunderstorm Thunderstorms and Rain
1:04 AM 44.6 °F 41.4 °F 39.2 °F 81% 29.95 in 5.0 mi East 5.8 mph - 0.02 in Rain , Thunderstorm Light Rain
1:15 AM 44.6 °F 42.2 °F 41.0 °F 87% 29.95 in 7.0 mi East 4.6 mph - 0.02 in Rain Light Rain
1:32 AM 44.6 °F 41.4 °F 41.0 °F 87% 29.94 in 4.0 mi East 5.8 mph - 0.07 in Rain , Thunderstorm Rain
1:49 AM 44.6 °F 41.4 °F 41.0 °F 87% 29.93 in 7.0 mi ESE 5.8 mph - 0.07 in   Overcast
2:53 AM 45.0 °F 41.2 °F 42.1 °F 90% 29.91 in 5.0 mi East 6.9 mph - 0.05 in Rain Light Rain
3:38 AM 46.4 °F 45.2 °F 42.8 °F 87% 29.94 in 6.0 mi Variable 3.5 mph - 0.00 in Thunderstorm Overcast
3:53 AM 46.0 °F - 43.0 °F 89% 29.93 in 3.0 mi Calm Calm - 0.01 in Rain , Thunderstorm Light Rain
4:02 AM 46.4 °F 44.3 °F 42.8 °F 87% 29.91 in 5.0 mi East 4.6 mph - 0.00 in Thunderstorm Overcast
4:10 AM 46.4 °F 43.5 °F 42.8 °F 87% 29.91 in 5.0 mi East 5.8 mph - 0.00 in   Overcast
4:53 AM 46.0 °F 43.1 °F 43.0 °F 89% 29.91 in 5.0 mi NE 5.8 mph - 0.00 in   Overcast
5:09 AM 46.4 °F 43.5 °F 42.8 °F 87% 29.91 in 5.0 mi East 5.8 mph - 0.01 in   Overcast
5:53 AM 46.0 °F 43.1 °F 43.0 °F 89% 29.93 in 4.0 mi ESE 5.8 mph - 0.03 in Rain Light Rain
6:29 AM 46.4 °F 44.3 °F 42.8 °F 87% 29.91 in 5.0 mi East 4.6 mph - 0.03 in   Overcast
6:46 AM 46.4 °F 43.5 °F 42.8 °F 87% 29.92 in 5.0 mi East 5.8 mph - 0.03 in   Overcast
6:53 AM 46.9 °F - 43.0 °F 86% 29.92 in 6.0 mi East 8.1 mph - 0.03 in   Overcast
7:53 AM 48.0 °F - 44.1 °F 86% 29.94 in 5.0 mi ESE 5.8 mph - N/A   Overcast
8:22 AM 48.2 °F - 44.6 °F 87% 29.93 in 2.0 mi East 6.9 mph - N/A   Overcast
8:31 AM 48.2 °F - 44.6 °F 87% 29.93 in 2.0 mi East 6.9 mph - N/A   Overcast
8:53 AM 48.0 °F - 45.0 °F 89% 29.94 in 2.5 mi East 5.8 mph - N/A   Overcast
9:23 AM 48.2 °F - 44.6 °F 87% 29.94 in 1.8 mi East 5.8 mph - N/A   Overcast
9:53 AM 48.9 °F - 45.0 °F 86% 29.94 in 1.8 mi East 5.8 mph - N/A   Overcast
10:01 AM 48.2 °F - 46.4 °F 93% 29.94 in 2.0 mi East 8.1 mph - N/A   Overcast
10:22 AM 50.0 °F - 46.4 °F 87% 29.94 in 3.0 mi East 8.1 mph - 0.01 in   Overcast
10:53 AM 50.0 °F - 46.0 °F 86% 29.94 in 6.0 mi ENE 8.1 mph - 0.01 in   Overcast
11:53 AM 51.1 °F - 46.0 °F 83% 29.91 in 6.0 mi East 9.2 mph - N/A   Haze
12:53 PM 52.0 °F - 46.9 °F 83% 29.91 in 6.0 mi East 5.8 mph - N/A   Haze
1:33 PM 53.6 °F - 46.4 °F 77% 29.91 in 5.0 mi ESE 6.9 mph - N/A   Haze
1:53 PM 53.1 °F - 46.9 °F 80% 29.88 in 5.0 mi East 9.2 mph - N/A   Haze
2:53 PM 53.1 °F - 46.9 °F 80% 29.85 in 5.0 mi East 8.1 mph - N/A   Haze
3:37 PM 51.8 °F - 48.2 °F 88% 29.91 in 2.5 mi Calm Calm - 0.04 in Rain , Thunderstorm Heavy Rain
3:49 PM 51.8 °F - 48.2 °F 88% 29.91 in 1.8 mi East 3.5 mph - 0.12 in Rain , Thunderstorm Heavy Rain
3:53 PM 52.0 °F - 48.0 °F 86% 29.89 in 1.5 mi NE 5.8 mph - 0.16 in Rain , Thunderstorm Heavy Rain
4:09 PM 51.8 °F - 48.2 °F 88% 29.77 in 1.8 mi ENE 15.0 mph 24.2 mph 0.07 in Rain Rain
4:12 PM 51.8 °F - 48.2 °F 88% 29.78 in 2.5 mi ENE 13.8 mph 18.4 mph 0.07 in Rain Light Rain
4:15 PM 53.6 °F - 48.2 °F 82% 29.79 in 3.0 mi ENE 10.4 mph 18.4 mph 0.07 in Rain Light Rain
4:28 PM 53.6 °F - 50.0 °F 88% 29.82 in 7.0 mi SE 6.9 mph - 0.07 in   Mostly Cloudy
4:37 PM 53.6 °F - 50.0 °F 88% 29.83 in 8.0 mi SSE 10.4 mph - 0.07 in   Mostly Cloudy
4:53 PM 54.0 °F - 48.9 °F 83% 29.82 in 10.0 mi SE 10.4 mph - 0.07 in   Overcast
5:01 PM 53.6 °F - 48.2 °F 82% 29.80 in 10.0 mi East 8.1 mph - N/A   Overcast
5:31 PM 53.6 °F - 48.2 °F 82% 29.76 in 10.0 mi East 12.7 mph - N/A   Mostly Cloudy
5:38 PM 53.6 °F - 48.2 °F 82% 29.76 in 10.0 mi East 13.8 mph - N/A   Mostly Cloudy
5:53 PM 54.0 °F - 48.9 °F 83% 29.76 in 7.0 mi ENE 10.4 mph - N/A   Mostly Cloudy
6:53 PM 53.1 °F - 48.9 °F 86% 29.75 in 10.0 mi East 10.4 mph - N/A   Overcast
7:53 PM 53.1 °F - 48.9 °F 86% 29.73 in 9.0 mi ESE 10.4 mph - N/A   Overcast
8:45 PM 53.6 °F - 48.2 °F 82% 29.78 in 8.0 mi Variable 3.5 mph - 0.00 in Rain , Thunderstorm Light Rain
8:53 PM 54.0 °F - 48.9 °F 83% 29.81 in 7.0 mi Calm Calm - 0.01 in Rain , Thunderstorm Light Thunderstorms and Rain
9:15 PM 53.6 °F - 48.2 °F 82% 29.77 in 2.5 mi NNE 4.6 mph - 0.10 in Rain Heavy Rain
9:19 PM 53.6 °F - 48.2 °F 82% 29.76 in 3.0 mi ENE 5.8 mph - 0.11 in Rain Rain
9:29 PM 53.6 °F - 48.2 °F 82% 29.73 in 4.0 mi SE 15.0 mph - 0.13 in Rain Rain
9:53 PM 53.1 °F - 48.9 °F 86% 29.74 in 3.0 mi SE 10.4 mph - 0.22 in Rain , Thunderstorm Heavy Rain
10:10 PM 53.6 °F - 48.2 °F 82% 29.75 in 4.0 mi SE 12.7 mph - 0.09 in Rain Heavy Rain
10:19 PM 53.6 °F - 48.2 °F 82% 29.75 in 4.0 mi SSE 9.2 mph - 0.11 in Rain Rain
10:33 PM 53.6 °F - 48.2 °F 82% 29.75 in 4.0 mi SSE 9.2 mph - 0.15 in Rain Rain
10:53 PM 53.1 °F - 48.9 °F 86% 29.73 in 4.0 mi SE 11.5 mph - 0.20 in Rain Rain
11:04 PM 53.6 °F - 48.2 °F 82% 29.69 in 5.0 mi ESE 10.4 mph - 0.01 in Rain Light Rain
11:17 PM 53.6 °F - 50.0 °F 88% 29.71 in 7.0 mi Variable 4.6 mph - 0.01 in Rain Light Rain
11:53 PM 53.1 °F - 50.0 °F 89% 29.71 in 6.0 mi Calm Calm - 0.02 in   Overcast